Time,TemperatureF,DewpointF,PressureIn,WindDirection,WindDirectionDegrees,WindSpeedMPH,WindSpeedGustMPH,Humidity,HourlyPrecipIn,Conditions,Clouds,dailyrainin,SoftwareType,DateUTC
2013-09-30 00:03:00,48.4,19.0,29.93,NW,318,1.0,6.0,31,0.00,,,0.00,meteohub,2013-09-30 06:03:00,
2013-09-30 00:08:00,49.1,19.0,29.93,North,354,1.0,6.0,30,0.00,,,0.00,meteohub,2013-09-30 06:08:00,
2013-09-30 00:14:00,49.3,18.3,29.93,NE,46,2.0,7.0,29,0.00,,,0.00,meteohub,2013-09-30 06:14:00,
2013-09-30 00:19:00,49.6,18.7,29.93,NNE,13,5.0,7.0,29,0.00,,,0.00,meteohub,2013-09-30 06:19:00,
2013-09-30 00:24:00,49.6,18.7,29.91,East,94,2.0,7.0,29,0.00,,,0.00,meteohub,2013-09-30 06:24:00,
2013-09-30 00:29:00,49.5,19.2,29.92,WSW,255,7.0,7.0,30,0.00,,,0.00,meteohub,2013-09-30 06:29:00,
2013-09-30 00:34:00,49.5,17.8,29.91,NNE,20,3.0,6.0,28,0.00,,,0.00,meteohub,2013-09-30 06:34:00,
2013-09-30 00:39:00,50.2,18.3,29.91,NW,305,5.0,9.0,28,0.00,,,0.00,meteohub,2013-09-30 06:39:00,
2013-09-30 00:44:00,49.5,19.2,29.90,NW,305,1.0,10.0,30,0.00,,,0.00,meteohub,2013-09-30 06:44:00,
2013-09-30 00:49:00,49.3,19.2,29.89,West,278,6.0,10.0,30,0.00,,,0.00,meteohub,2013-09-30 06:49:00,
2013-09-30 00:54:00,49.1,19.0,29.89,SW,224,8.0,10.0,30,0.00,,,0.00,meteohub,2013-09-30 06:54:00,
2013-09-30 00:59:00,48.9,18.9,29.89,West,277,12.0,12.0,30,0.00,,,0.00,meteohub,2013-09-30 06:59:00,
2013-09-30 01:04:00,49.3,19.2,29.88,NNW,338,4.0,11.0,30,0.00,,,0.00,meteohub,2013-09-30 07:04:00,
2013-09-30 01:09:00,49.1,18.1,29.88,NNW,328,7.0,13.0,29,0.00,,,0.00,meteohub,2013-09-30 07:09:00,
2013-09-30 01:14:00,49.5,20.1,29.88,NNE,32,9.0,13.0,31,0.00,,,0.00,meteohub,2013-09-30 07:14:00,
2013-09-30 01:19:00,48.0,20.3,29.87,NE,56,3.0,13.0,33,0.00,,,0.00,meteohub,2013-09-30 07:19:00,
2013-09-30 01:24:00,47.8,20.1,29.87,NE,38,4.0,14.0,33,0.00,,,0.00,meteohub,2013-09-30 07:24:00,
2013-09-30 01:30:00,48.4,19.0,29.87,ESE,103,1.0,14.0,31,0.00,,,0.00,meteohub,2013-09-30 07:30:00,
2013-09-30 01:35:00,47.8,20.1,29.87,SSE,162,5.0,9.0,33,0.00,,,0.00,meteohub,2013-09-30 07:35:00,
2013-09-30 01:40:00,46.9,19.9,29.87,South,169,6.0,8.0,34,0.00,,,0.00,meteohub,2013-09-30 07:40:00,
2013-09-30 01:45:00,47.1,19.4,29.87,SSE,153,2.0,12.0,33,0.00,,,0.00,meteohub,2013-09-30 07:45:00,
2013-09-30 01:50:00,48.4,19.9,29.86,ENE,67,5.0,12.0,32,0.00,,,0.00,meteohub,2013-09-30 07:50:00,
2013-09-30 01:55:00,48.7,20.1,29.87,SSW,210,7.0,12.0,32,0.00,,,0.00,meteohub,2013-09-30 07:55:00,
2013-09-30 02:00:00,48.0,19.6,29.87,SSE,160,2.0,7.0,32,0.00,,,0.00,meteohub,2013-09-30 08:00:00,
2013-09-30 02:05:00,48.0,19.6,29.86,SE,143,4.0,8.0,32,0.00,,,0.00,meteohub,2013-09-30 08:05:00,
2013-09-30 02:10:00,48.0,19.6,29.86,SW,215,5.0,8.0,32,0.00,,,0.00,meteohub,2013-09-30 08:10:00,
2013-09-30 02:15:00,48.4,19.0,29.86,SSW,198,6.0,8.0,31,0.00,,,0.00,meteohub,2013-09-30 08:15:00,
2013-09-30 02:20:00,48.7,19.4,29.86,SSE,160,4.0,8.0,31,0.00,,,0.00,meteohub,2013-09-30 08:20:00,
2013-09-30 02:25:00,48.9,19.6,29.86,South,187,4.0,8.0,31,0.00,,,0.00,meteohub,2013-09-30 08:25:00,
2013-09-30 02:30:00,48.9,18.9,29.86,SW,228,4.0,6.0,30,0.00,,,0.00,meteohub,2013-09-30 08:30:00,
2013-09-30 02:35:00,48.9,18.9,29.86,WSW,252,4.0,6.0,30,0.00,,,0.00,meteohub,2013-09-30 08:35:00,
2013-09-30 02:40:00,48.7,19.4,29.86,WSW,254,2.0,6.0,31,0.00,,,0.00,meteohub,2013-09-30 08:40:00,
2013-09-30 02:46:00,48.9,19.6,29.86,SW,219,6.0,8.0,31,0.00,,,0.00,meteohub,2013-09-30 08:46:00,
2013-09-30 02:51:00,49.3,19.9,29.86,NW,316,3.0,9.0,31,0.00,,,0.00,meteohub,2013-09-30 08:51:00,
2013-09-30 02:56:00,49.1,19.8,29.85,SW,236,4.0,9.0,31,0.00,,,0.00,meteohub,2013-09-30 08:56:00,
2013-09-30 03:01:00,49.5,20.1,29.85,WNW,294,3.0,9.0,31,0.00,,,0.00,meteohub,2013-09-30 09:01:00,
2013-09-30 03:06:00,49.3,19.9,29.85,SW,220,3.0,7.0,31,0.00,,,0.00,meteohub,2013-09-30 09:06:00,
2013-09-30 03:11:00,48.9,19.6,29.85,WSW,239,3.0,5.0,31,0.00,,,0.00,meteohub,2013-09-30 09:11:00,
2013-09-30 03:16:00,49.5,20.1,29.85,SW,229,5.0,7.0,31,0.00,,,0.00,meteohub,2013-09-30 09:16:00,
2013-09-30 03:21:00,49.5,20.1,29.85,West,264,1.0,7.0,31,0.00,,,0.00,meteohub,2013-09-30 09:21:00,
2013-09-30 03:26:00,49.3,19.9,29.85,WSW,245,1.0,7.0,31,0.00,,,0.00,meteohub,2013-09-30 09:26:00,
2013-09-30 03:31:00,49.5,20.1,29.85,SSE,166,5.0,5.0,31,0.00,,,0.00,meteohub,2013-09-30 09:31:00,
2013-09-30 03:36:00,49.1,21.2,29.85,NNW,328,3.0,6.0,33,0.00,,,0.00,meteohub,2013-09-30 09:36:00,
2013-09-30 03:41:00,48.9,19.6,29.85,West,276,2.0,6.0,31,0.00,,,0.00,meteohub,2013-09-30 09:41:00,
2013-09-30 03:46:00,50.4,20.1,29.85,North,5,0.0,6.0,30,0.00,,,0.00,meteohub,2013-09-30 09:46:00,
2013-09-30 03:51:00,51.1,19.9,29.84,ESE,111,1.0,5.0,29,0.00,,,0.00,meteohub,2013-09-30 09:51:00,
2013-09-30 03:56:00,51.6,19.6,29.84,SW,221,3.0,3.0,28,0.00,,,0.00,meteohub,2013-09-30 09:56:00,
2013-09-30 04:02:00,51.4,19.4,29.84,SE,127,2.0,3.0,28,0.00,,,0.00,meteohub,2013-09-30 10:02:00,
2013-09-30 04:07:00,51.4,20.3,29.84,SSW,197,2.0,4.0,29,0.00,,,0.00,meteohub,2013-09-30 10:07:00,
2013-09-30 04:12:00,50.5,20.3,29.84,SE,142,1.0,5.0,30,0.00,,,0.00,meteohub,2013-09-30 10:12:00,
2013-09-30 04:17:00,50.0,19.8,29.83,SSW,201,9.0,9.0,30,0.00,,,0.00,meteohub,2013-09-30 10:17:00,
2013-09-30 04:22:00,50.0,19.8,29.83,SSW,193,3.0,11.0,30,0.00,,,0.00,meteohub,2013-09-30 10:22:00,
2013-09-30 04:27:00,50.2,19.9,29.83,South,172,3.0,11.0,30,0.00,,,0.00,meteohub,2013-09-30 10:27:00,
2013-09-30 04:32:00,50.4,20.1,29.83,SSW,204,3.0,11.0,30,0.00,,,0.00,meteohub,2013-09-30 10:32:00,
2013-09-30 04:37:00,50.5,19.4,29.83,SW,214,3.0,8.0,29,0.00,,,0.00,meteohub,2013-09-30 10:37:00,
2013-09-30 04:42:00,50.5,19.4,29.83,SSW,203,4.0,8.0,29,0.00,,,0.00,meteohub,2013-09-30 10:42:00,
2013-09-30 04:47:00,50.5,19.4,29.83,South,173,3.0,6.0,29,0.00,,,0.00,meteohub,2013-09-30 10:47:00,
2013-09-30 04:52:00,50.7,19.6,29.83,SSW,200,4.0,6.0,29,0.00,,,0.00,meteohub,2013-09-30 10:52:00,
2013-09-30 04:57:00,51.1,19.9,29.83,South,172,3.0,7.0,29,0.00,,,0.00,meteohub,2013-09-30 10:57:00,
2013-09-30 05:02:00,51.1,19.9,29.83,SSW,203,3.0,7.0,29,0.00,,,0.00,meteohub,2013-09-30 11:02:00,
2013-09-30 05:07:00,51.1,19.9,29.83,South,186,4.0,7.0,29,0.00,,,0.00,meteohub,2013-09-30 11:07:00,
2013-09-30 05:12:00,50.9,19.8,29.83,SSW,205,5.0,7.0,29,0.00,,,0.00,meteohub,2013-09-30 11:12:00,
2013-09-30 05:17:00,50.7,19.6,29.83,WSW,249,5.0,8.0,29,0.00,,,0.00,meteohub,2013-09-30 11:17:00,
2013-09-30 05:22:00,50.5,19.4,29.83,WSW,247,4.0,8.0,29,0.00,,,0.00,meteohub,2013-09-30 11:22:00,
2013-09-30 05:27:00,50.5,19.4,29.83,SW,235,4.0,8.0,29,0.00,,,0.00,meteohub,2013-09-30 11:27:00,
2013-09-30 05:32:00,50.5,20.3,29.83,South,179,5.0,9.0,30,0.00,,,0.00,meteohub,2013-09-30 11:32:00,
2013-09-30 05:37:00,50.5,20.3,29.83,SSE,149,0.0,9.0,30,0.00,,,0.00,meteohub,2013-09-30 11:37:00,
2013-09-30 05:42:00,50.4,20.1,29.83,SW,215,4.0,9.0,30,0.00,,,0.00,meteohub,2013-09-30 11:42:00,
2013-09-30 05:47:00,50.2,19.9,29.83,WSW,242,3.0,9.0,30,0.00,,,0.00,meteohub,2013-09-30 11:47:00,
2013-09-30 05:52:00,49.8,19.6,29.83,SE,136,5.0,8.0,30,0.00,,,0.00,meteohub,2013-09-30 11:52:00,
2013-09-30 05:57:00,49.6,20.3,29.83,SSW,211,2.0,7.0,31,0.00,,,0.00,meteohub,2013-09-30 11:57:00,
2013-09-30 06:02:00,49.5,20.1,29.83,South,172,2.0,7.0,31,0.00,,,0.00,meteohub,2013-09-30 12:02:00,
2013-09-30 06:07:00,49.3,19.9,29.83,SW,225,1.0,7.0,31,0.00,,,0.00,meteohub,2013-09-30 12:07:00,
2013-09-30 06:12:00,48.9,19.6,29.83,SSE,159,3.0,6.0,31,0.00,,,0.00,meteohub,2013-09-30 12:12:00,
2013-09-30 06:17:00,49.1,19.8,29.83,SSE,159,2.0,6.0,31,0.00,,,0.00,meteohub,2013-09-30 12:17:00,
2013-09-30 06:22:00,49.1,20.5,29.83,SE,146,3.0,4.0,32,0.00,,,0.00,meteohub,2013-09-30 12:22:00,
2013-09-30 06:27:00,48.9,20.3,29.83,ESE,119,2.0,4.0,32,0.00,,,0.00,meteohub,2013-09-30 12:27:00,
2013-09-30 06:32:00,48.9,20.3,29.83,SE,129,2.0,3.0,32,0.00,,,0.00,meteohub,2013-09-30 12:32:00,
2013-09-30 06:37:00,49.1,20.5,29.83,SE,128,2.0,3.0,32,0.00,,,0.00,meteohub,2013-09-30 12:37:00,
2013-09-30 06:42:00,49.1,20.5,29.83,ESE,114,3.0,3.0,32,0.00,,,0.00,meteohub,2013-09-30 12:42:00,
2013-09-30 06:47:00,49.1,20.5,29.83,East,91,3.0,3.0,32,0.00,,,0.00,meteohub,2013-09-30 12:47:00,
2013-09-30 06:52:00,48.9,21.0,29.83,ESE,110,3.0,4.0,33,0.00,,,0.00,meteohub,2013-09-30 12:52:00,
2013-09-30 06:57:00,48.4,20.7,29.83,East,96,0.0,4.0,33,0.00,,,0.00,meteohub,2013-09-30 12:57:00,
2013-09-30 07:02:00,47.8,20.8,29.84,WNW,297,2.0,4.0,34,0.00,,,0.00,meteohub,2013-09-30 13:02:00,
2013-09-30 07:07:00,47.1,20.8,29.83,SE,124,1.0,4.0,35,0.00,,,0.00,meteohub,2013-09-30 13:07:00,
2013-09-30 07:12:00,46.8,20.5,29.84,West,277,2.0,3.0,35,0.00,,,0.00,meteohub,2013-09-30 13:12:00,
2013-09-30 07:17:00,46.2,21.4,29.84,WSW,240,1.0,3.0,37,0.00,,,0.00,meteohub,2013-09-30 13:17:00,
2013-09-30 07:22:00,46.8,21.2,29.84,NW,305,0.0,3.0,36,0.00,,,0.00,meteohub,2013-09-30 13:22:00,
2013-09-30 07:27:00,47.1,21.6,29.84,NW,322,1.0,3.0,36,0.00,,,0.00,meteohub,2013-09-30 13:27:00,
2013-09-30 07:32:00,46.8,21.9,29.84,NNE,13,0.0,3.0,37,0.00,,,0.00,meteohub,2013-09-30 13:32:00,
2013-09-30 07:37:00,46.6,23.0,29.84,NNW,333,3.0,4.0,39,0.00,,,0.00,meteohub,2013-09-30 13:37:00,
2013-09-30 07:42:00,46.4,22.1,29.84,North,0,0.0,4.0,38,0.00,,,0.00,meteohub,2013-09-30 13:42:00,
2013-09-30 07:47:00,46.8,23.2,29.84,NE,36,3.0,4.0,39,0.00,,,0.00,meteohub,2013-09-30 13:47:00,
2013-09-30 07:52:00,47.5,23.2,29.84,WNW,287,2.0,8.0,38,0.00,,,0.00,meteohub,2013-09-30 13:52:00,
2013-09-30 07:57:00,47.7,23.4,29.84,NW,326,0.0,8.0,38,0.00,,,0.00,meteohub,2013-09-30 13:57:00,
2013-09-30 08:02:00,47.8,22.8,29.84,NW,314,0.0,8.0,37,0.00,,,0.00,meteohub,2013-09-30 14:02:00,
2013-09-30 08:07:00,48.0,23.5,29.84,NW,313,0.0,3.0,38,0.00,,,0.00,meteohub,2013-09-30 14:07:00,
2013-09-30 08:13:00,48.6,23.5,29.84,West,276,1.0,2.0,37,0.00,,,0.00,meteohub,2013-09-30 14:13:00,
2013-09-30 08:18:00,48.9,23.2,29.83,WNW,284,0.0,2.0,36,0.00,,,0.00,meteohub,2013-09-30 14:18:00,
2013-09-30 08:23:00,49.5,23.5,29.83,WSW,253,0.0,2.0,36,0.00,,,0.00,meteohub,2013-09-30 14:23:00,
2013-09-30 08:28:00,50.2,23.5,29.83,WSW,254,0.0,2.0,35,0.00,,,0.00,meteohub,2013-09-30 14:28:00,
2013-09-30 08:33:00,51.3,23.2,29.83,ESE,118,0.0,3.0,33,0.00,,,0.00,meteohub,2013-09-30 14:33:00,
2013-09-30 08:38:00,52.2,22.5,29.83,SSW,198,0.0,3.0,31,0.00,,,0.00,meteohub,2013-09-30 14:38:00,
2013-09-30 08:43:00,52.9,23.0,29.83,SE,138,0.0,3.0,31,0.00,,,0.00,meteohub,2013-09-30 14:43:00,
2013-09-30 08:48:00,53.8,23.0,29.83,South,188,0.0,2.0,30,0.00,,,0.00,meteohub,2013-09-30 14:48:00,
2013-09-30 08:53:00,53.2,22.6,29.82,West,267,0.0,1.0,30,0.00,,,0.00,meteohub,2013-09-30 14:53:00,
2013-09-30 08:58:00,53.1,23.2,29.82,NNW,333,0.0,1.0,31,0.00,,,0.00,meteohub,2013-09-30 14:58:00,
2013-09-30 09:03:00,53.1,23.2,29.82,NNE,25,0.0,0.0,31,0.00,,,0.00,meteohub,2013-09-30 15:03:00,
2013-09-30 09:08:00,53.2,24.8,29.82,ENE,64,2.0,0.0,33,0.00,,,0.00,meteohub,2013-09-30 15:08:00,
2013-09-30 09:14:00,53.8,25.3,29.82,West,278,0.0,3.0,33,0.00,,,0.00,meteohub,2013-09-30 15:14:00,
2013-09-30 09:19:00,55.0,25.7,29.82,ESE,123,1.0,3.0,32,0.00,,,0.00,meteohub,2013-09-30 15:19:00,
2013-09-30 09:24:00,55.9,24.1,29.82,SE,145,5.0,5.0,29,0.00,,,0.00,meteohub,2013-09-30 15:24:00,
2013-09-30 09:29:00,55.6,23.9,29.82,WSW,240,2.0,7.0,29,0.00,,,0.00,meteohub,2013-09-30 15:29:00,
2013-09-30 09:34:00,55.9,24.1,29.82,SW,236,1.0,7.0,29,0.00,,,0.00,meteohub,2013-09-30 15:34:00,
2013-09-30 09:39:00,56.7,24.8,29.81,SE,141,3.0,7.0,29,0.00,,,0.00,meteohub,2013-09-30 15:39:00,
2013-09-30 09:44:00,57.0,24.3,29.81,ESE,122,4.0,7.0,28,0.00,,,0.00,meteohub,2013-09-30 15:44:00,
2013-09-30 09:49:00,57.0,24.3,29.81,SE,124,6.0,7.0,28,0.00,,,0.00,meteohub,2013-09-30 15:49:00,
2013-09-30 09:54:00,57.2,25.2,29.81,SSW,198,4.0,7.0,29,0.00,,,0.00,meteohub,2013-09-30 15:54:00,
2013-09-30 09:59:00,58.3,24.4,29.81,SE,131,4.0,6.0,27,0.00,,,0.00,meteohub,2013-09-30 15:59:00,
2013-09-30 10:04:00,58.6,24.8,29.80,WSW,248,3.0,11.0,27,0.00,,,0.00,meteohub,2013-09-30 16:04:00,
2013-09-30 10:09:00,59.5,24.6,29.80,SSW,208,7.0,11.0,26,0.00,,,0.00,meteohub,2013-09-30 16:09:00,
2013-09-30 10:14:00,59.9,25.0,29.80,South,172,4.0,11.0,26,0.00,,,0.00,meteohub,2013-09-30 16:14:00,
2013-09-30 10:20:00,60.3,23.4,29.80,SSW,198,0.0,11.0,24,0.00,,,0.00,meteohub,2013-09-30 16:20:00,
2013-09-30 10:25:00,60.8,24.8,29.79,SE,124,5.0,11.0,25,0.00,,,0.00,meteohub,2013-09-30 16:25:00,
2013-09-30 10:30:00,60.6,23.5,29.79,SSE,158,5.0,9.0,24,0.00,,,0.00,meteohub,2013-09-30 16:30:00,
2013-09-30 10:35:00,60.6,23.5,29.78,SE,128,0.0,11.0,24,0.00,,,0.00,meteohub,2013-09-30 16:35:00,
2013-09-30 10:40:00,61.0,22.8,29.78,SE,139,6.0,11.0,23,0.00,,,0.00,meteohub,2013-09-30 16:40:00,
2013-09-30 10:45:00,61.2,24.1,29.78,ESE,108,5.0,9.0,24,0.00,,,0.00,meteohub,2013-09-30 16:45:00,
2013-09-30 10:50:00,61.3,23.2,29.78,SE,125,10.0,10.0,23,0.00,,,0.00,meteohub,2013-09-30 16:50:00,
2013-09-30 10:55:00,61.5,23.4,29.78,South,174,1.0,11.0,23,0.00,,,0.00,meteohub,2013-09-30 16:55:00,
2013-09-30 11:00:00,62.2,23.9,29.77,SSE,160,2.0,12.0,23,0.00,,,0.00,meteohub,2013-09-30 17:00:00,
2013-09-30 11:05:00,62.2,23.0,29.77,WSW,248,1.0,12.0,22,0.00,,,0.00,meteohub,2013-09-30 17:05:00,
2013-09-30 11:10:00,62.8,22.3,29.76,SSW,203,2.0,11.0,21,0.00,,,0.00,meteohub,2013-09-30 17:10:00,
2013-09-30 11:15:00,63.3,22.6,29.76,SE,138,2.0,11.0,21,0.00,,,0.00,meteohub,2013-09-30 17:15:00,
2013-09-30 11:20:00,63.1,22.6,29.75,SE,139,2.0,9.0,21,0.00,,,0.00,meteohub,2013-09-30 17:20:00,
2013-09-30 11:26:00,63.7,25.2,29.75,East,99,2.0,9.0,23,0.00,,,0.00,meteohub,2013-09-30 17:26:00,
2013-09-30 11:31:00,63.9,24.3,29.75,East,97,3.0,9.0,22,0.00,,,0.00,meteohub,2013-09-30 17:31:00,
2013-09-30 11:36:00,64.0,23.4,29.75,East,100,3.0,9.0,21,0.00,,,0.00,meteohub,2013-09-30 17:36:00,
2013-09-30 11:41:00,64.0,24.4,29.74,NE,56,4.0,9.0,22,0.00,,,0.00,meteohub,2013-09-30 17:41:00,
2013-09-30 11:46:00,64.4,23.5,29.74,NE,42,1.0,7.0,21,0.00,,,0.00,meteohub,2013-09-30 17:46:00,
2013-09-30 11:51:00,64.8,26.1,29.73,NNE,22,3.0,7.0,23,0.00,,,0.00,meteohub,2013-09-30 17:51:00,
2013-09-30 11:56:00,65.7,25.7,29.73,NE,41,3.0,7.0,22,0.00,,,0.00,meteohub,2013-09-30 17:56:00,
2013-09-30 12:01:00,66.2,25.2,29.73,East,82,1.0,7.0,21,0.00,,,0.00,meteohub,2013-09-30 18:01:00,
2013-09-30 12:06:00,66.4,25.3,29.73,ESE,109,5.0,7.0,21,0.00,,,0.00,meteohub,2013-09-30 18:06:00,
2013-09-30 12:11:00,66.2,26.2,29.72,ENE,62,6.0,10.0,22,0.00,,,0.00,meteohub,2013-09-30 18:11:00,
2013-09-30 12:16:00,66.6,25.3,29.73,ESE,108,6.0,10.0,21,0.00,,,0.00,meteohub,2013-09-30 18:16:00,
2013-09-30 12:21:00,66.6,26.6,29.72,NE,48,0.0,9.0,22,0.00,,,0.00,meteohub,2013-09-30 18:21:00,
2013-09-30 12:26:00,67.3,26.1,29.72,ESE,122,3.0,9.0,21,0.00,,,0.00,meteohub,2013-09-30 18:26:00,
2013-09-30 12:31:00,67.8,25.3,29.72,SE,131,7.0,11.0,20,0.00,,,0.00,meteohub,2013-09-30 18:31:00,
2013-09-30 12:36:00,67.8,26.4,29.72,East,95,9.0,11.0,21,0.00,,,0.00,meteohub,2013-09-30 18:36:00,
2013-09-30 12:42:00,67.8,26.4,29.71,East,79,8.0,14.0,21,0.00,,,0.00,meteohub,2013-09-30 18:42:00,
2013-09-30 12:47:00,68.2,26.8,29.71,SE,132,3.0,14.0,21,0.00,,,0.00,meteohub,2013-09-30 18:47:00,
2013-09-30 12:52:00,68.4,27.0,29.71,SE,129,6.0,12.0,21,0.00,,,0.00,meteohub,2013-09-30 18:52:00,
2013-09-30 12:57:00,69.1,28.6,29.70,SE,124,12.0,14.0,22,0.00,,,0.00,meteohub,2013-09-30 18:57:00,
2013-09-30 13:02:00,69.1,27.5,29.70,ESE,102,14.0,18.0,21,0.00,,,0.00,meteohub,2013-09-30 19:02:00,
2013-09-30 13:07:00,69.1,28.6,29.69,East,91,7.0,18.0,22,0.00,,,0.00,meteohub,2013-09-30 19:07:00,
2013-09-30 13:12:00,70.0,28.2,29.69,SE,146,11.0,18.0,21,0.00,,,0.00,meteohub,2013-09-30 19:12:00,
2013-09-30 13:17:00,69.8,27.0,29.68,East,84,2.0,18.0,20,0.00,,,0.00,meteohub,2013-09-30 19:17:00,
2013-09-30 13:22:00,70.5,28.8,29.68,SSE,155,9.0,15.0,21,0.00,,,0.00,meteohub,2013-09-30 19:22:00,
2013-09-30 13:27:00,70.2,28.4,29.68,SSE,155,2.0,13.0,21,0.00,,,0.00,meteohub,2013-09-30 19:27:00,
2013-09-30 13:32:00,71.2,29.3,29.67,South,179,3.0,12.0,21,0.00,,,0.00,meteohub,2013-09-30 19:32:00,
2013-09-30 13:37:00,70.9,28.9,29.67,SW,228,4.0,12.0,21,0.00,,,0.00,meteohub,2013-09-30 19:37:00,
2013-09-30 13:42:00,71.4,29.5,29.67,ESE,107,7.0,9.0,21,0.00,,,0.00,meteohub,2013-09-30 19:42:00,
2013-09-30 13:47:00,72.1,28.8,29.66,ESE,120,4.0,12.0,20,0.00,,,0.00,meteohub,2013-09-30 19:47:00,
2013-09-30 13:52:00,71.2,28.0,29.66,ESE,116,6.0,12.0,20,0.00,,,0.00,meteohub,2013-09-30 19:52:00,
2013-09-30 13:57:00,70.7,30.0,29.66,NNW,328,2.0,14.0,22,0.00,,,0.00,meteohub,2013-09-30 19:57:00,
2013-09-30 14:02:00,70.5,29.8,29.65,NNE,23,8.0,14.0,22,0.00,,,0.00,meteohub,2013-09-30 20:02:00,
2013-09-30 14:07:00,70.9,30.2,29.65,NNW,330,13.0,13.0,22,0.00,,,0.00,meteohub,2013-09-30 20:07:00,
2013-09-30 14:12:00,71.2,31.5,29.65,NNW,328,11.0,16.0,23,0.00,,,0.00,meteohub,2013-09-30 20:12:00,
2013-09-30 14:17:00,71.2,30.4,29.65,NNE,15,19.0,19.0,22,0.00,,,0.00,meteohub,2013-09-30 20:17:00,
2013-09-30 14:22:00,71.2,31.5,29.65,WNW,303,9.0,25.0,23,0.00,,,0.00,meteohub,2013-09-30 20:22:00,
2013-09-30 14:27:00,71.2,30.4,29.63,NNW,328,18.0,25.0,22,0.00,,,0.00,meteohub,2013-09-30 20:27:00,
2013-09-30 14:32:00,71.4,30.6,29.64,NW,313,10.0,30.0,22,0.00,,,0.00,meteohub,2013-09-30 20:32:00,
2013-09-30 14:37:00,71.4,30.6,29.64,NW,311,7.0,30.0,22,0.00,,,0.00,meteohub,2013-09-30 20:37:00,
2013-09-30 14:42:00,71.1,30.2,29.63,WSW,249,9.0,30.0,22,0.00,,,0.00,meteohub,2013-09-30 20:42:00,
2013-09-30 14:47:00,70.9,30.2,29.64,NNW,340,11.0,24.0,22,0.00,,,0.00,meteohub,2013-09-30 20:47:00,
2013-09-30 14:52:00,71.1,30.2,29.64,NW,317,9.0,28.0,22,0.00,,,0.00,meteohub,2013-09-30 20:52:00,
2013-09-30 14:57:00,71.1,31.5,29.63,NNW,329,17.0,28.0,23,0.00,,,0.00,meteohub,2013-09-30 20:57:00,
2013-09-30 15:02:00,71.2,30.4,29.64,NW,311,7.0,23.0,22,0.00,,,0.00,meteohub,2013-09-30 21:02:00,
2013-09-30 15:07:00,71.8,30.9,29.63,NW,309,14.0,20.0,22,0.00,,,0.00,meteohub,2013-09-30 21:07:00,
2013-09-30 15:12:00,72.0,32.2,29.64,NW,326,12.0,20.0,23,0.00,,,0.00,meteohub,2013-09-30 21:12:00,
2013-09-30 15:17:00,72.1,31.1,29.64,NNW,338,8.0,20.0,22,0.00,,,0.00,meteohub,2013-09-30 21:17:00,
2013-09-30 15:22:00,71.8,30.9,29.64,NNW,336,7.0,20.0,22,0.00,,,0.00,meteohub,2013-09-30 21:22:00,
2013-09-30 15:27:00,71.4,30.6,29.64,North,5,5.0,20.0,22,0.00,,,0.00,meteohub,2013-09-30 21:27:00,
2013-09-30 15:32:00,71.6,30.7,29.64,WNW,300,6.0,20.0,22,0.00,,,0.00,meteohub,2013-09-30 21:32:00,
2013-09-30 15:37:00,71.2,30.4,29.64,NW,319,10.0,20.0,22,0.00,,,0.00,meteohub,2013-09-30 21:37:00,
2013-09-30 15:42:00,71.4,30.6,29.64,NNW,343,8.0,21.0,22,0.00,,,0.00,meteohub,2013-09-30 21:42:00,
2013-09-30 15:47:00,71.2,30.4,29.64,NW,309,20.0,21.0,22,0.00,,,0.00,meteohub,2013-09-30 21:47:00,
2013-09-30 15:52:00,71.2,29.3,29.64,NNW,340,6.0,22.0,21,0.00,,,0.00,meteohub,2013-09-30 21:52:00,
2013-09-30 15:57:00,71.2,30.4,29.64,NW,307,10.0,22.0,22,0.00,,,0.00,meteohub,2013-09-30 21:57:00,
2013-09-30 16:02:00,71.2,31.5,29.64,West,267,7.0,22.0,23,0.00,,,0.00,meteohub,2013-09-30 22:02:00,
2013-09-30 16:07:00,71.2,30.4,29.63,NW,321,13.0,23.0,22,0.00,,,0.00,meteohub,2013-09-30 22:07:00,
2013-09-30 16:12:00,71.2,30.4,29.64,North,349,12.0,23.0,22,0.00,,,0.00,meteohub,2013-09-30 22:12:00,
2013-09-30 16:17:00,71.1,31.5,29.63,NNW,340,8.0,23.0,23,0.00,,,0.00,meteohub,2013-09-30 22:17:00,
2013-09-30 16:22:00,70.9,30.2,29.63,NW,321,9.0,23.0,22,0.00,,,0.00,meteohub,2013-09-30 22:22:00,
2013-09-30 16:27:00,70.5,30.9,29.63,NNW,338,5.0,25.0,23,0.00,,,0.00,meteohub,2013-09-30 22:27:00,
2013-09-30 16:32:00,70.5,29.8,29.63,NNE,18,12.0,25.0,22,0.00,,,0.00,meteohub,2013-09-30 22:32:00,
2013-09-30 16:37:00,70.5,30.9,29.63,NW,318,7.0,25.0,23,0.00,,,0.00,meteohub,2013-09-30 22:37:00,
2013-09-30 16:42:00,70.9,31.3,29.64,WNW,290,3.0,21.0,23,0.00,,,0.00,meteohub,2013-09-30 22:42:00,
2013-09-30 16:47:00,70.9,30.2,29.64,NW,323,9.0,19.0,22,0.00,,,0.00,meteohub,2013-09-30 22:47:00,
2013-09-30 16:52:00,70.9,31.3,29.64,NW,321,7.0,16.0,23,0.00,,,0.00,meteohub,2013-09-30 22:52:00,
2013-09-30 16:57:00,70.7,30.0,29.64,NW,323,9.0,16.0,22,0.00,,,0.00,meteohub,2013-09-30 22:57:00,
2013-09-30 17:02:00,70.5,29.8,29.64,NNW,328,3.0,16.0,22,0.00,,,0.00,meteohub,2013-09-30 23:02:00,
2013-09-30 17:07:00,70.5,29.8,29.64,WNW,300,2.0,16.0,22,0.00,,,0.00,meteohub,2013-09-30 23:07:00,
2013-09-30 17:12:00,71.4,31.6,29.64,SW,214,8.0,10.0,23,0.00,,,0.00,meteohub,2013-09-30 23:12:00,
2013-09-30 17:17:00,71.2,30.4,29.64,SSW,204,2.0,11.0,22,0.00,,,0.00,meteohub,2013-09-30 23:17:00,
2013-09-30 17:22:00,71.2,30.4,29.65,West,269,3.0,11.0,22,0.00,,,0.00,meteohub,2013-09-30 23:22:00,
2013-09-30 17:27:00,71.4,31.6,29.65,WNW,287,2.0,11.0,23,0.00,,,0.00,meteohub,2013-09-30 23:27:00,
2013-09-30 17:32:00,71.1,30.2,29.65,NW,309,8.0,8.0,22,0.00,,,0.00,meteohub,2013-09-30 23:32:00,
2013-09-30 17:37:00,70.3,30.7,29.65,West,276,2.0,10.0,23,0.00,,,0.00,meteohub,2013-09-30 23:37:00,
2013-09-30 17:42:00,70.9,31.3,29.65,West,279,1.0,10.0,23,0.00,,,0.00,meteohub,2013-09-30 23:42:00,
2013-09-30 17:47:00,71.1,30.2,29.65,West,259,0.0,10.0,22,0.00,,,0.00,meteohub,2013-09-30 23:47:00,
2013-09-30 17:52:00,71.6,30.7,29.65,West,262,0.0,5.0,22,0.00,,,0.00,meteohub,2013-09-30 23:52:00,
2013-09-30 17:57:00,71.4,31.6,29.65,NW,318,1.0,5.0,23,0.00,,,0.00,meteohub,2013-09-30 23:57:00,
2013-09-30 18:02:00,70.3,30.7,29.65,WNW,291,2.0,8.0,23,0.00,,,0.00,meteohub,2013-10-01 00:02:00,
2013-09-30 18:07:00,70.0,31.5,29.65,NNW,329,2.0,8.0,24,0.00,,,0.00,meteohub,2013-10-01 00:07:00,
2013-09-30 18:12:00,68.7,29.5,29.65,NW,304,1.0,8.0,23,0.00,,,0.00,meteohub,2013-10-01 00:12:00,
2013-09-30 18:17:00,67.5,30.4,29.65,NW,306,0.0,5.0,25,0.00,,,0.00,meteohub,2013-10-01 00:17:00,
2013-09-30 18:22:00,66.6,31.5,29.65,West,273,1.0,4.0,27,0.00,,,0.00,meteohub,2013-10-01 00:22:00,
2013-09-30 18:27:00,65.8,31.8,29.65,SW,228,2.0,6.0,28,0.00,,,0.00,meteohub,2013-10-01 00:27:00,
2013-09-30 18:32:00,64.9,31.1,29.65,West,281,5.0,6.0,28,0.00,,,0.00,meteohub,2013-10-01 00:32:00,
2013-09-30 18:37:00,64.8,31.8,29.65,WNW,285,3.0,6.0,29,0.00,,,0.00,meteohub,2013-10-01 00:37:00,
2013-09-30 18:42:00,64.2,30.4,29.65,NW,326,4.0,7.0,28,0.00,,,0.00,meteohub,2013-10-01 00:42:00,
2013-09-30 18:47:00,63.9,28.2,29.65,WNW,283,3.0,7.0,26,0.00,,,0.00,meteohub,2013-10-01 00:47:00,
2013-09-30 18:52:00,63.7,29.1,29.66,NW,308,2.0,8.0,27,0.00,,,0.00,meteohub,2013-10-01 00:52:00,
2013-09-30 18:57:00,63.0,26.6,29.66,WNW,302,6.0,8.0,25,0.00,,,0.00,meteohub,2013-10-01 00:57:00,
2013-09-30 19:02:00,62.6,28.2,29.66,West,280,6.0,9.0,27,0.00,,,0.00,meteohub,2013-10-01 01:02:00,
2013-09-30 19:07:00,63.0,23.5,29.66,WNW,292,6.0,10.0,22,0.00,,,0.00,meteohub,2013-10-01 01:07:00,
2013-09-30 19:12:00,63.0,25.5,29.66,NW,325,3.0,10.0,24,0.00,,,0.00,meteohub,2013-10-01 01:12:00,
2013-09-30 19:17:00,62.8,25.5,29.66,WNW,297,3.0,10.0,24,0.00,,,0.00,meteohub,2013-10-01 01:17:00,
2013-09-30 19:22:00,62.2,26.1,29.67,NW,308,3.0,8.0,25,0.00,,,0.00,meteohub,2013-10-01 01:22:00,
2013-09-30 19:27:00,61.5,25.3,29.67,West,268,5.0,9.0,25,0.00,,,0.00,meteohub,2013-10-01 01:27:00,
2013-09-30 19:32:00,61.3,24.3,29.67,West,273,4.0,9.0,24,0.00,,,0.00,meteohub,2013-10-01 01:32:00,
2013-09-30 19:37:00,61.7,23.5,29.67,SW,233,4.0,9.0,23,0.00,,,0.00,meteohub,2013-10-01 01:37:00,
2013-09-30 19:42:00,61.3,23.2,29.67,WNW,288,2.0,9.0,23,0.00,,,0.00,meteohub,2013-10-01 01:42:00,
2013-09-30 19:47:00,60.4,24.4,29.68,West,263,4.0,9.0,25,0.00,,,0.00,meteohub,2013-10-01 01:47:00,
2013-09-30 19:52:00,60.3,22.3,29.68,WNW,283,1.0,9.0,23,0.00,,,0.00,meteohub,2013-10-01 01:52:00,
2013-09-30 19:57:00,60.1,23.2,29.68,WSW,240,1.0,7.0,24,0.00,,,0.00,meteohub,2013-10-01 01:57:00,
2013-09-30 20:02:00,60.4,26.2,29.68,SE,146,1.0,7.0,27,0.00,,,0.00,meteohub,2013-10-01 02:02:00,
2013-09-30 20:07:00,60.8,27.5,29.68,South,170,2.0,7.0,28,0.00,,,0.00,meteohub,2013-10-01 02:07:00,
2013-09-30 20:12:00,60.4,27.1,29.68,SSW,206,2.0,5.0,28,0.00,,,0.00,meteohub,2013-10-01 02:12:00,
2013-09-30 20:17:00,59.7,26.6,29.68,SSE,152,2.0,4.0,28,0.00,,,0.00,meteohub,2013-10-01 02:17:00,
2013-09-30 20:22:00,59.5,25.5,29.69,WNW,284,5.0,5.0,27,0.00,,,0.00,meteohub,2013-10-01 02:22:00,
2013-09-30 20:27:00,58.6,23.9,29.69,West,259,4.0,7.0,26,0.00,,,0.00,meteohub,2013-10-01 02:27:00,
2013-09-30 20:32:00,59.0,22.3,29.69,WSW,257,3.0,7.0,24,0.00,,,0.00,meteohub,2013-10-01 02:32:00,
2013-09-30 20:37:00,59.7,20.8,29.70,West,264,1.0,7.0,22,0.00,,,0.00,meteohub,2013-10-01 02:37:00,
2013-09-30 20:42:00,60.6,21.6,29.70,WSW,239,3.0,6.0,22,0.00,,,0.00,meteohub,2013-10-01 02:42:00,
2013-09-30 20:47:00,61.0,20.8,29.70,SSW,202,1.0,4.0,21,0.00,,,0.00,meteohub,2013-10-01 02:47:00,
2013-09-30 20:52:00,60.6,20.5,29.70,SSW,198,2.0,4.0,21,0.00,,,0.00,meteohub,2013-10-01 02:52:00,
2013-09-30 20:57:00,60.4,20.3,29.70,WSW,252,1.0,4.0,21,0.00,,,0.00,meteohub,2013-10-01 02:57:00,
2013-09-30 21:02:00,60.6,19.4,29.70,NW,307,3.0,4.0,20,0.00,,,0.00,meteohub,2013-10-01 03:02:00,
2013-09-30 21:07:00,60.4,19.2,29.70,NNW,328,4.0,4.0,20,0.00,,,0.00,meteohub,2013-10-01 03:07:00,
2013-09-30 21:12:00,59.9,19.9,29.70,NW,311,2.0,5.0,21,0.00,,,0.00,meteohub,2013-10-01 03:12:00,
2013-09-30 21:17:00,58.8,19.0,29.70,WNW,293,4.0,8.0,21,0.00,,,0.00,meteohub,2013-10-01 03:17:00,
2013-09-30 21:22:00,58.5,19.8,29.71,WNW,293,4.0,8.0,22,0.00,,,0.00,meteohub,2013-10-01 03:22:00,
2013-09-30 21:27:00,58.5,19.8,29.71,West,263,3.0,6.0,22,0.00,,,0.00,meteohub,2013-10-01 03:27:00,
2013-09-30 21:32:00,58.5,19.8,29.71,SW,236,3.0,7.0,22,0.00,,,0.00,meteohub,2013-10-01 03:32:00,
2013-09-30 21:37:00,58.8,19.0,29.71,WSW,249,4.0,7.0,21,0.00,,,0.00,meteohub,2013-10-01 03:37:00,
2013-09-30 21:42:00,57.7,21.2,29.72,WSW,241,3.0,6.0,24,0.00,,,0.00,meteohub,2013-10-01 03:42:00,
2013-09-30 21:47:00,57.0,21.6,29.72,SW,235,4.0,6.0,25,0.00,,,0.00,meteohub,2013-10-01 03:47:00,
2013-09-30 21:53:00,57.7,19.2,29.72,WSW,255,1.0,6.0,22,0.00,,,0.00,meteohub,2013-10-01 03:53:00,
2013-09-30 21:58:00,57.6,19.9,29.72,NNW,336,2.0,6.0,23,0.00,,,0.00,meteohub,2013-10-01 03:58:00,
2013-09-30 22:01:00,56.3,20.8,29.72,NW,326,4.0,5.0,25,0.00,,,0.00,meteohub,2013-10-01 04:01:00,
2013-09-30 22:02:00,56.1,20.8,29.72,NNW,333,6.0,6.0,25,0.00,,,0.00,meteohub,2013-10-01 04:02:00,
2013-09-30 22:06:00,54.1,20.8,29.72,NW,326,4.0,6.0,27,0.00,,,0.00,meteohub,2013-10-01 04:06:00,
2013-09-30 22:07:00,54.0,20.7,29.73,NNW,329,5.0,6.0,27,0.00,,,0.00,meteohub,2013-10-01 04:07:00,
2013-09-30 22:12:00,54.1,19.9,29.73,NW,326,4.0,6.0,26,0.00,,,0.00,meteohub,2013-10-01 04:12:00,
2013-09-30 22:17:00,55.6,19.4,29.73,NW,320,1.0,8.0,24,0.00,,,0.00,meteohub,2013-10-01 04:17:00,
2013-09-30 22:22:00,56.8,19.4,29.72,SSE,150,1.0,8.0,23,0.00,,,0.00,meteohub,2013-10-01 04:22:00,
2013-09-30 22:27:00,57.0,18.5,29.73,SW,215,2.0,7.0,22,0.00,,,0.00,meteohub,2013-10-01 04:27:00,
2013-09-30 22:32:00,57.0,20.5,29.73,ESE,110,2.0,5.0,24,0.00,,,0.00,meteohub,2013-10-01 04:32:00,
2013-09-30 22:37:00,56.8,21.4,29.73,ESE,105,0.0,5.0,25,0.00,,,0.00,meteohub,2013-10-01 04:37:00,
2013-09-30 22:42:00,56.5,21.9,29.73,ENE,58,1.0,5.0,26,0.00,,,0.00,meteohub,2013-10-01 04:42:00,
2013-09-30 22:47:00,55.9,21.6,29.73,NE,49,1.0,5.0,26,0.00,,,0.00,meteohub,2013-10-01 04:47:00,
2013-09-30 22:52:00,55.9,21.6,29.73,ENE,67,4.0,4.0,26,0.00,,,0.00,meteohub,2013-10-01 04:52:00,
2013-09-30 22:57:00,56.3,21.9,29.73,North,11,2.0,7.0,26,0.00,,,0.00,meteohub,2013-10-01 04:57:00,
2013-09-30 23:02:00,55.9,21.6,29.73,NE,50,3.0,7.0,26,0.00,,,0.00,meteohub,2013-10-01 05:02:00,
2013-09-30 23:07:00,55.9,21.6,29.73,NNW,330,3.0,7.0,26,0.00,,,0.00,meteohub,2013-10-01 05:07:00,
2013-09-30 23:12:00,54.5,22.1,29.73,SSE,160,2.0,6.0,28,0.00,,,0.00,meteohub,2013-10-01 05:12:00,
2013-09-30 23:17:00,53.6,21.2,29.73,SW,214,3.0,5.0,28,0.00,,,0.00,meteohub,2013-10-01 05:17:00,
2013-09-30 23:22:00,53.4,21.2,29.74,WNW,294,1.0,5.0,28,0.00,,,0.00,meteohub,2013-10-01 05:22:00,
2013-09-30 23:27:00,53.6,21.2,29.73,SSW,193,0.0,5.0,28,0.00,,,0.00,meteohub,2013-10-01 05:27:00,
2013-09-30 23:32:00,54.0,21.6,29.73,East,86,0.0,5.0,28,0.00,,,0.00,meteohub,2013-10-01 05:32:00,
2013-09-30 23:37:00,54.0,20.7,29.73,WNW,298,0.0,4.0,27,0.00,,,0.00,meteohub,2013-10-01 05:37:00,
2013-09-30 23:42:00,53.4,21.2,29.73,West,276,1.0,2.0,28,0.00,,,0.00,meteohub,2013-10-01 05:42:00,
2013-09-30 23:47:00,52.2,20.8,29.73,WNW,300,4.0,6.0,29,0.00,,,0.00,meteohub,2013-10-01 05:47:00,
2013-09-30 23:52:00,51.6,21.2,29.73,WSW,257,2.0,6.0,30,0.00,,,0.00,meteohub,2013-10-01 05:52:00,
2013-09-30 23:57:00,51.4,21.0,29.73,West,276,3.0,6.0,30,0.00,,,0.00,meteohub,2013-10-01 05:57:00,